Flag for Germany Weather past 2 weeks in Kirchheim unter Teck, Baden-Württemberg, Germany

Now
41 °F

Sprinkles. Partly sunny.


Feels Like: 31 °F
Forecast: 37 / 42 °F
Wind: 25 mph from Northwest

Location: Stuttgart-Echterdingen

Current Time: Mar 31, 2015 at 7:22:20 PM

Latest Report: Mar 31, 2015 at 6:50 PM


Visibility: N/A

Pressure: 29.86 "Hg

Humidity: 87%

Dew point: 37 °F

Location of Kirchheim unter TeckLocation

Historic Weather in Kirchheim unter Teck — Graph

°F

Kirchheim unter Teck temperature yesterday

Maximum temperature yesterday: 50 °F (at 12:20 AM)
Minimum temperature yesterday: 43 °F (at 2:20 PM)
Average temperature yesterday: 46 °F

Past Weeks' High & Low Weather Summary

 TemperatureHumidityPressure
High66 °F (Mar 17, 2:50 PM)100% (Mar 19, 6:20 AM)30.36 "Hg (Mar 19, 6:20 AM)
Low30 °F (Mar 24, 4:50 AM)29% (Mar 20, 4:20 PM)29.56 "Hg (Mar 25, 1:50 PM)
Average46 °F70%29.97 "Hg
* Reported Mar 16 5:20 PM — Mar 31 6:20 PM, Kirchheim unter Teck, Weather by CustomWeather, © 2015

Note: Actual official high and low records may vary slightly from our data, if they occured in-between our weather recording intervals... More about our weather records

Advertising

Kirchheim unter Teck weather history for previous 24 hours

 ConditionsComfort  
Time TempWeatherWind HumidityBarometerVisibility
6:20 PM
Tue, Mar 31
48 °FBroken clouds.39 mph66%29.80 "HgN/A
5:50 PM46 °FSprinkles. Scattered clouds.36 mph76%29.77 "HgN/A
5:20 PM50 °FScattered clouds.32 mph67%29.77 "HgN/A
4:50 PM48 °FScattered clouds.31 mph76%29.74 "HgN/A
4:20 PM48 °FScattered clouds.38 mph76%29.74 "HgN/A
3:50 PM48 °FSprinkles. Broken clouds.37 mph82%29.74 "Hg6 mi
3:20 PM48 °FSprinkles. Broken clouds.30 mph82%29.71 "HgN/A
2:50 PM50 °FSprinkles. Broken clouds.26 mph82%29.68 "HgN/A
2:20 PM55 °FBroken clouds.32 mph59%29.65 "HgN/A
1:50 PM54 °FBroken clouds.29 mph67%29.65 "HgN/A
1:20 PM54 °FSprinkles. Partly sunny.31 mph67%29.65 "HgN/A
12:50 PM55 °FBroken clouds.44 mph55%29.65 "HgN/A
12:20 PM55 °FPartly sunny.31 mph59%29.65 "HgN/A
11:50 AM54 °FLight rain. Broken clouds.33 mph72%29.62 "HgN/A
11:20 AM54 °FLight rain. Broken clouds.24 mph72%29.62 "HgN/A
10:50 AM54 °FLight rain. Broken clouds.23 mph77%29.62 "HgN/A
10:20 AM54 °FLight rain. Broken clouds.22 mph77%29.59 "HgN/A
9:50 AM54 °FLight rain. Broken clouds.24 mph72%29.59 "HgN/A
9:20 AM54 °FLight rain. Broken clouds.25 mph72%29.59 "HgN/A
8:50 AM55 °FPartly sunny.24 mph67%29.56 "HgN/A
8:20 AM55 °FPartly sunny.24 mph67%29.56 "HgN/A
7:50 AM55 °FPassing clouds.24 mph72%29.56 "HgN/A
7:20 AM55 °FPassing clouds.20 mph72%29.56 "HgN/A
6:50 AM54 °FPartly cloudy.18 mph77%29.59 "HgN/A
6:20 AM54 °FPartly cloudy.21 mph77%29.59 "HgN/A
5:50 AM54 °FPassing clouds.21 mph77%29.59 "HgN/A
5:20 AM52 °FPassing clouds.16 mph82%29.59 "HgN/A
4:50 AM48 °FPassing clouds.13 mph87%29.62 "HgN/A
4:20 AM46 °FPassing clouds.13 mph82%29.65 "HgN/A
3:50 AM46 °FLight rain. Passing clouds.12 mph82%29.68 "HgN/A
3:20 AM45 °FLight rain. Passing clouds.8 mph81%29.74 "HgN/A
2:50 AM45 °FPassing clouds.9 mph76%29.77 "HgN/A
2:20 AM45 °FPassing clouds.10 mph71%29.80 "HgN/A
1:20 AM45 °FClear.5 mph66%29.86 "Hg10 mi
12:50 AM43 °FClear.8 mph71%29.86 "Hg10 mi
12:20 AM43 °FClear.7 mph71%29.89 "Hg10 mi
11:50 PM
Mon, Mar 30
43 °FClear.5 mph71%29.92 "Hg10 mi
11:20 PM43 °FPassing clouds.6 mph66%29.92 "HgN/A
10:50 PM43 °FClear.8 mph66%29.92 "Hg10 mi
10:20 PM43 °FClear.9 mph66%29.92 "Hg10 mi
9:50 PM45 °FClear.12 mph61%29.92 "Hg10 mi
9:20 PM45 °FClear.8 mph61%29.92 "Hg10 mi
8:50 PM45 °FClear.10 mph61%29.92 "Hg10 mi
8:20 PM45 °FScattered showers. Partly sunny.12 mph61%29.92 "HgN/A
7:50 PM46 °FScattered showers. Partly sunny.16 mph53%29.89 "HgN/A
7:20 PM46 °FPartly sunny.18 mph57%29.89 "HgN/A
Weather by CustomWeather, © 2015

See weather overviewHow to use our weather pages